Zurück zum Katalog

ERS 15

AktivWissenschaftPO
NORAD 2412·PAYLOAD·🇺🇸 United States

Gestartet Aug 19, 1966 von Vandenberg Space Force Base

Loading…

Nächste Überflüge (nächste 24 Stunden)

TLE

AktuellSource: Space-Track

Epoche: Sep 14, 2026, 01:27 UTC

1 02412U 66077C   26257.06076963  .00000002  00000-0  00000-0 0  9996
2 02412  90.3250 278.2758 0006123 340.8365  19.2255  8.59079858398092

Verfolge ERS 15 in Echtzeit mit AllMySat

Download on the App Store